sat.trackr.live / text

‹ back to catalog

STARLINK-33618

NORAD 63374 · 2025-063M

PAYLOAD ACTIVE UNKNOWN

§ Identity

Operator
Country
US
Launch date
2025-03-26
Launch site
AFWTR
Launch vehicle
Mass (kg)
RCS (m²)

Purposes: comms

External: N2YO · Heavens-Above · Gunter

§ Orbital elements

Epoch: 2026-09-20T10:33:33.892704Z

Period
93.85 min
Inclination
53.1573°
Eccentricity
0.0000985
Mean motion
15.34383504 rev/d
Perigee alt
462.1 km
Apogee alt
463.4 km
Semi-major
6,840.9 km
B*
5.9623e-4
RAAN
221.6900°
Arg perigee
71.5744°
Mean anomaly
288.5366°
Rev number
8,466

§ Raw data

STARLINK-336181 63374U 25063M   26263.43997561  .00019811  00000+0  59623-3 0  99992 63374  53.1573 221.6900 0000985  71.5744 288.5366 15.34383504 84667

JSON: /api/v1/satellites/63374 · /tle

For live sub-satellite position, see the globe view (requires WebGL).

§ Visibility from observer

Set your observer location to see the next 7 days of passes ≥ 10°. The values pass through the URL so the page stays shareable.

No JS? Fill the form by hand. The geolocation button needs JavaScript.